QPF
0.02 0.01 0.01 0.00 0.00 0.00 0.01 0.01 0.01 0.01 0.01 0.01 0.01 0.02 0.03 0.02 0.02 0.02 0.03 0.02 0.02 0.01 0.01 0.01 0.00 0.00 0.00 0.00 0.00 0.01 0.01 0.01 0.01 0.01 0.02 0.02 0.03 0.03 0.02 0.02 0.02 0.02 0.02 0.02
0.01 0.01 0.01 0.00 0.00 0.01 0.01 0.01 0.01 0.01 0.01 0.01 0.01 0.02 0.03 0.04 0.03 0.03 0.03 0.02 0.01 0.01 0.01 0.01 0.00 0.00 0.00 0.00 0.01 0.01 0.01 0.01 0.01 0.01 0.01 0.01 0.02 0.03 0.04 0.04 0.02 0.02 0.03 0.03
0.01 0.01 0.01 0.01 0.01 0.01 0.00 0.01 0.01 0.01 0.01 0.01 0.01 0.02 0.03 0.03 0.03 0.03 0.02 0.02 0.01 0.01 0.01 0.00 0.00 0.00 0.00 0.00 0.01 0.01 0.01 0.01 0.01 0.01 0.01 0.01 0.02 0.02 0.03 0.04 0.03 0.04 0.04 0.04
0.01 0.01 0.01 0.01 0.01 0.01 0.01 0.01 0.01 0.01 0.01 0.01 0.01 0.01 0.02 0.03 0.03 0.02 0.02 0.02 0.02 0.01 0.01 0.00 0.00 0.00 0.00 0.01 0.01 0.01 0.01 0.01 0.01 0.02 0.02 0.02 0.03 0.03 0.03 0.04 0.04 0.04 0.05 0.05
0.01 0.01 0.01 0.02 0.02 0.03 0.02 0.02 0.01 0.01 0.01 0.01 0.02 0.02 0.03 0.04 0.03 0.03 0.03 0.02 0.02 0.01 0.01 0.00 0.00 0.00 0.01 0.01 0.02 0.02 0.01 0.02 0.01 0.01 0.02 0.02 0.03 0.05 0.04 0.04 0.04 0.05 0.06 0.06
0.01 0.01 0.02 0.02 0.02 0.02 0.03 0.03 0.03 0.03 0.03 0.02 0.02 0.02 0.02 0.02 0.02 0.02 0.02 0.02 0.01 0.01 0.00 0.00 0.00 0.00 0.01 0.02 0.02 0.02 0.01 0.01 0.01 0.01 0.02 0.02 0.03 0.04 0.04 0.05 0.05 0.05 0.05 0.06
0.01 0.01 0.02 0.02 0.02 0.02 0.03 0.04 0.03 0.03 0.03 0.02 0.02 0.02 0.02 0.02 0.02 0.02 0.02 0.02 0.01 0.00 0.00 0.00 0.00 0.01 0.01 0.01 0.01 0.01 0.01 0.02 0.02 0.02 0.02 0.03 0.03 0.04 0.03 0.05 0.06 0.05 0.05 0.06
0.01 0.02 0.03 0.03 0.03 0.03 0.02 0.02 0.02 0.03 0.03 0.02 0.01 0.01 0.01 0.01 0.01 0.01 0.01 0.01 0.00 0.00 0.01 0.01 0.00 0.01 0.01 0.01 0.01 0.02 0.02 0.03 0.03 0.03 0.03 0.04 0.03 0.03 0.03 0.04 0.05 0.05 0.05 0.05
0.00 0.02 0.02 0.02 0.02 0.02 0.01 0.01 0.02 0.02 0.01 0.01 0.01 0.01 0.00 0.00 0.01 0.01 0.01 0.01 0.01 0.00 0.01 0.01 0.01 0.02 0.01 0.02 0.02 0.02 0.02 0.03 0.03 0.03 0.03 0.03 0.03 0.04 0.03 0.04 0.04 0.05 0.05 0.04
0.01 0.01 0.01 0.01 0.01 0.01 0.00 0.01 0.01 0.02 0.01 0.01 0.01 0.01 0.01 0.01 0.01 0.01 0.00 0.00 0.01 0.01 0.01 0.02 0.03 0.02 0.02 0.02 0.03 0.03 0.03 0.03 0.04 0.04 0.04 0.03 0.03 0.04 0.04 0.05 0.04 0.04 0.04 0.03
0.02 0.01 0.01 0.01 0.00 0.00 0.00 0.00 0.01 0.01 0.01 0.01 0.02 0.02 0.02 0.02 0.01 0.01 0.00 0.00 0.01 0.01 0.01 0.02 0.03 0.02 0.02 0.02 0.03 0.03 0.03 0.03 0.04 0.04 0.05 0.04 0.03 0.03 0.04 0.04 0.03 0.03 0.02 0.01
0.02 0.00 0.01 0.01 0.00 0.00 0.00 0.00 0.00 0.00 0.00 0.01 0.01 0.01 0.02 0.02 0.02 0.01 0.01 0.01 0.02 0.02 0.01 0.01 0.01 0.01 0.02 0.02 0.02 0.03 0.03 0.03 0.03 0.04 0.04 0.03 0.03 0.02 0.02 0.02 0.01 0.01 0.00 0.00
0.00 0.00 0.00 0.00 0.00 0.00 0.00 0.00 0.00 0.00 0.00 0.01 0.01 0.01 0.01 0.01 0.01 0.01 0.01 0.01 0.02 0.02 0.01 0.01 0.01 0.01 0.03 0.03 0.03 0.03 0.03 0.02 0.02 0.03 0.03 0.02 0.01 0.01 0.01 0.01 0.00 0.00 0.00 0.00
0.00 0.00 0.00 0.00 0.00 0.00 0.00 0.00 0.00 0.00 0.00 0.00 0.00 0.00 0.01 0.01 0.01 0.02 0.03 0.02 0.01 0.01 0.01 0.01 0.01 0.02 0.02 0.02 0.02 0.02 0.02 0.03 0.02 0.02 0.01 0.01 0.01 0.01 0.01 0.01 0.00 0.00 0.00 0.00
0.00 0.00 0.00 0.00 0.00 0.00 0.00 0.00 0.00 0.00 0.00 0.00 0.00 0.00 0.01 0.01 0.01 0.02 0.02 0.02 0.01 0.01 0.01 0.01 0.01 0.01 0.02 0.02 0.02 0.02 0.02 0.02 0.01 0.01 0.01 0.01 0.01 0.01 0.01 0.00 0.00 0.00 0.00 0.00
0.00 0.00 0.00 0.00 0.00 0.00 0.00 0.00 0.00 0.00 0.00 0.00 0.00 0.00 0.01 0.01 0.01 0.01 0.01 0.01 0.01 0.01 0.01 0.01 0.01 0.01 0.01 0.02 0.02 0.02 0.02 0.01 0.01 0.01 0.01 0.01 0.01 0.01 0.00 0.00 0.00 0.00 0.00 0.00
0.00 0.00 0.00 0.00 0.00 0.00 0.00 0.00 0.00 0.00 0.00 0.00 0.00 0.00 0.00 0.00 0.00 0.01 0.01 0.01 0.01 0.01 0.01 0.01 0.01 0.01 0.02 0.02 0.01 0.01 0.01 0.01 0.00 0.00 0.00 0.00 0.00 0.00 0.00 0.00 0.00 0.00 0.00 0.00
0.00 0.00 0.00 0.00 0.00 0.00 0.00 0.00 0.00 0.00 0.00 0.00 0.00 0.00 0.00 0.00 0.00 0.00 0.00 0.01 0.01 0.01 0.00 0.01 0.01 0.01 0.01 0.01 0.01 0.01 0.00 0.00 0.00 0.00 0.00 0.00 0.00 0.00 0.00 0.00 0.00 0.00 0.00 0.00
0.00 0.00 0.00 0.00 0.00 0.00 0.00 0.00 0.00 0.00 0.00 0.00 0.00 0.00 0.00 0.00 0.00 0.00 0.00 0.01 0.01 0.01 0.01 0.01 0.01 0.01 0.01 0.01 0.00 0.00 0.00 0.00 0.00 0.00 0.00 0.00 0.00 0.00 0.00 0.00 0.00 0.00 0.00 0.00
0.00 0.00 0.00 0.00 0.00 0.00 0.00 0.00 0.00 0.00 0.00 0.00 0.00 0.00 0.00 0.00 0.00 0.00 0.00 0.01 0.01 0.00 0.00 0.01 0.01 0.01 0.00 0.00 0.00 0.00 0.00 0.00 0.00 0.00 0.00 0.00 0.00 0.00 0.00 0.00 0.00 0.00 0.00 0.00
0.00 0.00 0.00 0.00 0.00 0.00 0.00 0.00 0.00 0.00 0.00 0.00 0.00 0.00 0.00 0.00 0.00 0.00 0.00 0.01 0.01 0.00 0.00 0.01 0.00 0.00 0.00 0.00 0.00 0.00 0.00 0.00 0.00 0.00 0.00 0.00 0.00 0.00 0.00 0.00 0.00 0.00 0.00 0.00
0.00 0.00 0.00 0.00 0.00 0.00 0.00 0.00 0.00 0.00 0.00 0.00 0.00 0.00 0.00 0.00 0.00 0.00 0.00 0.00 0.00 0.00 0.00 0.00 0.00 0.00 0.00 0.00 0.00 0.00 0.00 0.00 0.00 0.00 0.00 0.00 0.00 0.00 0.00 0.00 0.00 0.00 0.00 0.00
0.00 0.00 0.00 0.00 0.00 0.00 0.00 0.00 0.00 0.00 0.00 0.00 0.00 0.00 0.00 0.00 0.00 0.00 0.00 0.00 0.00 0.00 0.00 0.00 0.00 0.00 0.00 0.00 0.00 0.00 0.00 0.00 0.00 0.00 0.00 0.00 0.00 0.00 0.00 0.00 0.00 0.00 0.00 0.00
0.00 0.00 0.00 0.00 0.00 0.00 0.00 0.00 0.00 0.00 0.00 0.00 0.00 0.00 0.00 0.00 0.00 0.00 0.00 0.00 0.00 0.00 0.00 0.00 0.00 0.00 0.00 0.00 0.00 0.00 0.00 0.00 0.00 0.00 0.00 0.00 0.00 0.00 0.00 0.00 0.00 0.00 0.00 0.00
0.00 0.00 0.00 0.00 0.00 0.00 0.00 0.00 0.00 0.00 0.00 0.00 0.00 0.00 0.00 0.00 0.00 0.00 0.00 0.00 0.00 0.00 0.00 0.00 0.00 0.00 0.00 0.00 0.00 0.00 0.00 0.00 0.00 0.00 0.00 0.00 0.00 0.00 0.00 0.00 0.00 0.00 0.00 0.00
0.00 0.00 0.00 0.00 0.00 0.00 0.00 0.00 0.00 0.00 0.00 0.00 0.00 0.00 0.00 0.00 0.00 0.00 0.00 0.00 0.00 0.00 0.00 0.00 0.00 0.00 0.00 0.00 0.00 0.00 0.00 0.00 0.00 0.00 0.00 0.00 0.00 0.00 0.00 0.00 0.00 0.00 0.00 0.00
0.00 0.00 0.00 0.00 0.00 0.00 0.00 0.00 0.00 0.00 0.00 0.00 0.00 0.00 0.00 0.00 0.00 0.00 0.00 0.00 0.00 0.00 0.00 0.00 0.00 0.00 0.00 0.00 0.00 0.00 0.00 0.00 0.00 0.00 0.00 0.00 0.00 0.00 0.00 0.00 0.00 0.00 0.00 0.00
MSLP
1014.83 1015.02 1015.23 1015.43 1015.59 1015.69 1015.71 1015.63 1015.45 1015.21 1014.93 1014.67 1014.49 1014.44 1014.54 1014.81 1015.24 1015.78 1016.38 1017.00 1017.56 1018.03 1018.39 1018.62 1018.75 1018.80 1018.81 1018.80 1018.82 1018.87 1018.95 1019.06 1019.18 1019.30 1019.40 1019.48 1019.54 1019.59 1019.61 1019.62 1019.62 1019.60 1019.55 1019.45
1015.03 1015.16 1015.26 1015.32 1015.34 1015.31 1015.22 1015.08 1014.91 1014.74 1014.59 1014.51 1014.52 1014.65 1014.92 1015.30 1015.78 1016.33 1016.88 1017.41 1017.88 1018.26 1018.54 1018.73 1018.86 1018.93 1018.98 1019.03 1019.10 1019.18 1019.28 1019.38 1019.47 1019.56 1019.63 1019.68 1019.73 1019.77 1019.81 1019.85 1019.89 1019.92 1019.91 1019.87
1015.28 1015.35 1015.36 1015.32 1015.23 1015.09 1014.94 1014.77 1014.63 1014.53 1014.51 1014.58 1014.76 1015.04 1015.43 1015.89 1016.41 1016.93 1017.44 1017.89 1018.27 1018.57 1018.79 1018.95 1019.07 1019.17 1019.25 1019.34 1019.44 1019.54 1019.64 1019.72 1019.80 1019.85 1019.89 1019.93 1019.97 1020.02 1020.09 1020.17 1020.26 1020.34 1020.38 1020.39
1015.61 1015.62 1015.56 1015.44 1015.28 1015.09 1014.91 1014.75 1014.65 1014.63 1014.71 1014.91 1015.21 1015.60 1016.07 1016.58 1017.10 1017.59 1018.04 1018.41 1018.72 1018.95 1019.13 1019.26 1019.38 1019.48 1019.59 1019.70 1019.81 1019.91 1020.00 1020.07 1020.12 1020.15 1020.17 1020.21 1020.26 1020.34 1020.45 1020.58 1020.72 1020.84 1020.94 1020.99
1016.01 1015.96 1015.86 1015.70 1015.50 1015.30 1015.12 1015.00 1014.95 1015.01 1015.18 1015.46 1015.85 1016.30 1016.81 1017.32 1017.82 1018.27 1018.65 1018.96 1019.20 1019.38 1019.52 1019.63 1019.74 1019.84 1019.95 1020.07 1020.18 1020.27 1020.34 1020.39 1020.42 1020.44 1020.46 1020.51 1020.59 1020.71 1020.87 1021.05 1021.24 1021.41 1021.55 1021.63
1016.41 1016.33 1016.20 1016.04 1015.85 1015.67 1015.53 1015.46 1015.48 1015.61 1015.85 1016.19 1016.61 1017.09 1017.60 1018.09 1018.54 1018.93 1019.25 1019.49 1019.68 1019.81 1019.91 1020.01 1020.10 1020.20 1020.30 1020.41 1020.50 1020.58 1020.63 1020.67 1020.69 1020.72 1020.76 1020.84 1020.96 1021.13 1021.34 1021.58 1021.82 1022.03 1022.20 1022.30
1016.75 1016.66 1016.53 1016.39 1016.24 1016.12 1016.05 1016.05 1016.14 1016.34 1016.63 1017.01 1017.45 1017.92 1018.39 1018.83 1019.22 1019.55 1019.80 1019.99 1020.12 1020.21 1020.29 1020.36 1020.44 1020.52 1020.61 1020.70 1020.77 1020.84 1020.88 1020.92 1020.95 1021.00 1021.07 1021.20 1021.38 1021.60 1021.87 1022.16 1022.44 1022.68 1022.87 1022.98
1016.99 1016.89 1016.79 1016.69 1016.61 1016.57 1016.59 1016.68 1016.85 1017.11 1017.44 1017.84 1018.27 1018.71 1019.13 1019.51 1019.84 1020.10 1020.29 1020.42 1020.51 1020.57 1020.63 1020.68 1020.73 1020.80 1020.87 1020.94 1021.00 1021.05 1021.10 1021.15 1021.21 1021.29 1021.42 1021.61 1021.84 1022.13 1022.45 1022.78 1023.09 1023.36 1023.55 1023.67
1017.07 1017.00 1016.93 1016.90 1016.91 1016.97 1017.09 1017.28 1017.53 1017.85 1018.21 1018.61 1019.02 1019.42 1019.79 1020.11 1020.37 1020.57 1020.71 1020.80 1020.86 1020.89 1020.92 1020.96 1021.00 1021.04 1021.10 1021.15 1021.21 1021.26 1021.32 1021.39 1021.49 1021.63 1021.82 1022.07 1022.37 1022.71 1023.08 1023.44 1023.77 1024.04 1024.24 1024.36
1017.01 1016.96 1016.96 1017.00 1017.11 1017.28 1017.51 1017.79 1018.13 1018.50 1018.90 1019.30 1019.68 1020.04 1020.36 1020.62 1020.82 1020.97 1021.07 1021.13 1021.17 1021.18 1021.20 1021.22 1021.24 1021.28 1021.32 1021.37 1021.43 1021.49 1021.58 1021.69 1021.84 1022.04 1022.30 1022.61 1022.96 1023.35 1023.74 1024.12 1024.46 1024.73 1024.92 1025.02
1016.83 1016.82 1016.88 1017.01 1017.22 1017.50 1017.83 1018.21 1018.62 1019.05 1019.46 1019.86 1020.23 1020.55 1020.82 1021.04 1021.20 1021.32 1021.39 1021.43 1021.45 1021.46 1021.47 1021.49 1021.50 1021.53 1021.57 1021.62 1021.69 1021.78 1021.90 1022.06 1022.27 1022.53 1022.84 1023.21 1023.61 1024.02 1024.43 1024.81 1025.14 1025.39 1025.56 1025.64
1016.57 1016.60 1016.74 1016.96 1017.27 1017.65 1018.08 1018.54 1019.01 1019.48 1019.92 1020.32 1020.67 1020.96 1021.20 1021.39 1021.52 1021.61 1021.68 1021.71 1021.73 1021.75 1021.76 1021.77 1021.79 1021.82 1021.86 1021.92 1022.01 1022.13 1022.29 1022.50 1022.76 1023.07 1023.44 1023.84 1024.27 1024.70 1025.10 1025.47 1025.76 1025.98 1026.12 1026.17
1016.28 1016.37 1016.58 1016.89 1017.29 1017.76 1018.27 1018.80 1019.32 1019.82 1020.27 1020.66 1021.00 1021.28 1021.49 1021.66 1021.79 1021.87 1021.94 1021.98 1022.01 1022.03 1022.05 1022.08 1022.11 1022.14 1022.20 1022.28 1022.39 1022.54 1022.74 1022.99 1023.30 1023.65 1024.05 1024.48 1024.91 1025.33 1025.72 1026.05 1026.30 1026.48 1026.57 1026.58
1016.01 1016.17 1016.45 1016.83 1017.31 1017.85 1018.42 1019.00 1019.55 1020.07 1020.52 1020.92 1021.24 1021.50 1021.71 1021.87 1021.99 1022.09 1022.16 1022.22 1022.27 1022.31 1022.35 1022.39 1022.44 1022.49 1022.56 1022.66 1022.80 1022.98 1023.21 1023.50 1023.83 1024.22 1024.63 1025.06 1025.49 1025.89 1026.24 1026.52 1026.73 1026.85 1026.89 1026.87
1015.78 1016.00 1016.35 1016.80 1017.34 1017.93 1018.54 1019.14 1019.71 1020.23 1020.69 1021.07 1021.39 1021.64 1021.84 1022.00 1022.13 1022.24 1022.33 1022.42 1022.49 1022.56 1022.62 1022.69 1022.75 1022.83 1022.92 1023.04 1023.20 1023.41 1023.66 1023.97 1024.33 1024.72 1025.13 1025.55 1025.95 1026.31 1026.62 1026.85 1027.00 1027.08 1027.08 1027.01
1015.61 1015.89 1016.29 1016.79 1017.36 1017.98 1018.61 1019.23 1019.80 1020.31 1020.75 1021.13 1021.43 1021.68 1021.88 1022.05 1022.19 1022.31 1022.43 1022.54 1022.65 1022.74 1022.84 1022.93 1023.02 1023.12 1023.24 1023.38 1023.56 1023.79 1024.06 1024.37 1024.73 1025.11 1025.50 1025.89 1026.26 1026.57 1026.83 1027.01 1027.12 1027.16 1027.12 1027.03
1015.47 1015.80 1016.24 1016.77 1017.37 1017.99 1018.62 1019.23 1019.79 1020.28 1020.71 1021.07 1021.37 1021.61 1021.81 1021.99 1022.15 1022.30 1022.44 1022.58 1022.72 1022.85 1022.97 1023.10 1023.22 1023.35 1023.49 1023.65 1023.85 1024.08 1024.35 1024.66 1025.00 1025.36 1025.72 1026.07 1026.38 1026.66 1026.87 1027.01 1027.08 1027.09 1027.04 1026.94
1015.35 1015.72 1016.18 1016.72 1017.32 1017.94 1018.55 1019.14 1019.67 1020.15 1020.56 1020.90 1021.19 1021.43 1021.65 1021.83 1022.01 1022.19 1022.36 1022.53 1022.69 1022.86 1023.02 1023.17 1023.33 1023.48 1023.64 1023.83 1024.03 1024.26 1024.52 1024.81 1025.12 1025.44 1025.76 1026.06 1026.33 1026.55 1026.72 1026.83 1026.89 1026.88 1026.83 1026.74
1015.25 1015.63 1016.09 1016.63 1017.20 1017.80 1018.38 1018.94 1019.45 1019.90 1020.29 1020.63 1020.91 1021.16 1021.38 1021.59 1021.79 1021.99 1022.18 1022.38 1022.58 1022.77 1022.97 1023.15 1023.33 1023.51 1023.70 1023.89 1024.10 1024.32 1024.57 1024.82 1025.09 1025.37 1025.63 1025.88 1026.10 1026.28 1026.41 1026.50 1026.54 1026.54 1026.50 1026.44
1015.14 1015.52 1015.96 1016.47 1017.01 1017.57 1018.12 1018.64 1019.12 1019.55 1019.93 1020.26 1020.56 1020.81 1021.05 1021.28 1021.50 1021.72 1021.94 1022.16 1022.39 1022.61 1022.83 1023.04 1023.25 1023.45 1023.65 1023.85 1024.06 1024.27 1024.49 1024.71 1024.93 1025.16 1025.36 1025.56 1025.72 1025.86 1025.96 1026.03 1026.07 1026.08 1026.07 1026.04
1015.03 1015.38 1015.79 1016.26 1016.76 1017.27 1017.77 1018.26 1018.71 1019.13 1019.50 1019.84 1020.14 1020.42 1020.67 1020.92 1021.16 1021.40 1021.64 1021.89 1022.13 1022.38 1022.62 1022.86 1023.09 1023.30 1023.52 1023.72 1023.92 1024.12 1024.31 1024.49 1024.67 1024.84 1024.99 1025.13 1025.24 1025.34 1025.41 1025.47 1025.50 1025.53 1025.53 1025.54
1014.91 1015.22 1015.59 1016.00 1016.45 1016.91 1017.37 1017.82 1018.26 1018.66 1019.04 1019.38 1019.70 1019.99 1020.27 1020.54 1020.80 1021.05 1021.31 1021.57 1021.83 1022.09 1022.35 1022.60 1022.84 1023.08 1023.30 1023.51 1023.70 1023.88 1024.05 1024.20 1024.33 1024.45 1024.55 1024.64 1024.71 1024.77 1024.81 1024.85 1024.87 1024.90 1024.92 1024.94
1014.78 1015.05 1015.36 1015.72 1016.11 1016.52 1016.94 1017.36 1017.78 1018.18 1018.56 1018.91 1019.25 1019.56 1019.85 1020.14 1020.41 1020.68 1020.94 1021.21 1021.47 1021.74 1022.01 1022.27 1022.52 1022.77 1022.99 1023.21 1023.40 1023.57 1023.72 1023.84 1023.94 1024.02 1024.08 1024.13 1024.16 1024.17 1024.19 1024.20 1024.21 1024.23 1024.25 1024.28
1014.66 1014.88 1015.13 1015.43 1015.76 1016.12 1016.50 1016.90 1017.29 1017.69 1018.07 1018.44 1018.79 1019.11 1019.42 1019.72 1020.00 1020.27 1020.53 1020.80 1021.06 1021.33 1021.60 1021.86 1022.12 1022.37 1022.61 1022.83 1023.02 1023.19 1023.33 1023.44 1023.53 1023.58 1023.61 1023.62 1023.61 1023.60 1023.59 1023.57 1023.56 1023.56 1023.56 1023.57
1014.55 1014.71 1014.91 1015.15 1015.43 1015.74 1016.08 1016.45 1016.83 1017.21 1017.59 1017.96 1018.32 1018.65 1018.97 1019.26 1019.54 1019.81 1020.07 1020.32 1020.58 1020.84 1021.10 1021.37 1021.63 1021.89 1022.13 1022.36 1022.57 1022.74 1022.89 1023.00 1023.07 1023.12 1023.13 1023.12 1023.10 1023.06 1023.02 1022.98 1022.94 1022.91 1022.88 1022.86
1014.45 1014.57 1014.71 1014.89 1015.12 1015.38 1015.69 1016.02 1016.38 1016.74 1017.12 1017.48 1017.83 1018.17 1018.48 1018.77 1019.03 1019.29 1019.53 1019.77 1020.01 1020.26 1020.52 1020.78 1021.04 1021.30 1021.56 1021.80 1022.02 1022.21 1022.37 1022.49 1022.57 1022.62 1022.63 1022.62 1022.59 1022.53 1022.48 1022.41 1022.34 1022.28 1022.23 1022.17
1014.37 1014.44 1014.54 1014.67 1014.84 1015.06 1015.32 1015.62 1015.94 1016.29 1016.64 1016.99 1017.32 1017.64 1017.93 1018.21 1018.46 1018.69 1018.92 1019.14 1019.36 1019.59 1019.84 1020.09 1020.35 1020.62 1020.88 1021.13 1021.37 1021.58 1021.75 1021.89 1022.00 1022.06 1022.08 1022.08 1022.05 1021.99 1021.92 1021.85 1021.76 1021.68 1021.59 1021.51
Thickness
5646 5654 5657 5657 5657 5656 5652 5648 5642 5647 5647 5649 5648 5644 5637 5629 5622 5615 5609 5602 5596 5589 5584 5580 5577 5574 5572 5570 5569 5568 5566 5565 5563 5562 5562 5562 5562 5563 5564 5564 5565 5567 5569 5571
5641 5650 5653 5651 5653 5654 5652 5650 5648 5648 5645 5645 5643 5637 5629 5622 5615 5609 5601 5595 5589 5582 5577 5572 5568 5565 5563 5560 5558 5557 5556 5555 5554 5553 5553 5553 5552 5553 5553 5554 5556 5558 5559 5561
5627 5639 5644 5636 5643 5647 5647 5646 5645 5641 5641 5638 5633 5629 5622 5615 5610 5603 5595 5587 5580 5574 5568 5562 5559 5556 5554 5551 5550 5548 5547 5546 5545 5544 5544 5543 5543 5543 5543 5544 5546 5547 5549 5551
5621 5629 5622 5634 5648 5648 5643 5641 5641 5638 5636 5633 5628 5620 5614 5609 5603 5594 5586 5578 5570 5563 5558 5553 5549 5547 5545 5543 5541 5540 5538 5537 5536 5535 5534 5533 5533 5533 5533 5534 5536 5538 5539 5541
5613 5616 5622 5635 5642 5641 5637 5634 5635 5632 5627 5621 5617 5611 5603 5599 5593 5585 5577 5569 5561 5555 5550 5545 5542 5539 5537 5535 5533 5532 5530 5528 5527 5526 5526 5525 5525 5524 5524 5526 5527 5529 5530 5532
5612 5614 5614 5627 5639 5643 5637 5626 5630 5627 5621 5615 5612 5603 5596 5590 5584 5576 5568 5560 5553 5547 5542 5538 5534 5532 5530 5527 5526 5524 5522 5520 5520 5519 5519 5518 5517 5517 5518 5519 5520 5521 5522 5524
5609 5610 5616 5629 5636 5638 5623 5621 5626 5622 5616 5610 5606 5599 5590 5582 5574 5567 5559 5552 5546 5541 5536 5532 5528 5525 5522 5520 5518 5516 5515 5514 5514 5513 5513 5512 5512 5512 5512 5513 5514 5515 5515 5517
5607 5607 5613 5629 5632 5625 5621 5623 5621 5616 5610 5602 5594 5588 5581 5574 5566 5559 5552 5545 5540 5534 5529 5525 5522 5519 5516 5514 5511 5510 5510 5509 5508 5507 5508 5508 5508 5508 5508 5509 5509 5509 5510 5511
5610 5611 5620 5623 5624 5624 5621 5618 5614 5608 5601 5595 5587 5579 5572 5565 5558 5552 5546 5539 5533 5529 5524 5520 5517 5514 5511 5508 5507 5505 5504 5503 5503 5502 5502 5503 5504 5504 5504 5504 5505 5505 5506 5507
5614 5619 5621 5622 5622 5621 5618 5614 5608 5603 5596 5589 5581 5573 5566 5559 5551 5545 5539 5533 5528 5523 5519 5515 5513 5510 5507 5504 5503 5501 5500 5499 5498 5498 5498 5499 5500 5501 5501 5501 5501 5502 5503 5503
5616 5619 5621 5621 5618 5616 5612 5608 5603 5597 5591 5585 5577 5568 5561 5554 5547 5541 5534 5528 5524 5520 5516 5513 5510 5507 5504 5502 5500 5499 5498 5497 5495 5495 5495 5495 5496 5496 5498 5498 5499 5500 5501 5502
5617 5621 5617 5616 5616 5614 5608 5603 5598 5592 5585 5579 5573 5565 5558 5550 5544 5537 5531 5526 5522 5518 5514 5511 5508 5505 5503 5501 5499 5498 5497 5496 5494 5494 5494 5494 5495 5495 5496 5498 5499 5501 5501 5502
5626 5625 5619 5617 5614 5611 5606 5600 5594 5589 5582 5575 5568 5562 5555 5547 5541 5535 5530 5526 5521 5518 5514 5510 5508 5505 5503 5501 5500 5498 5497 5496 5495 5494 5494 5495 5496 5497 5497 5497 5499 5501 5502 5504
5628 5625 5618 5615 5611 5608 5603 5597 5591 5585 5579 5573 5566 5559 5553 5546 5540 5535 5530 5526 5522 5518 5515 5512 5509 5507 5505 5503 5502 5500 5499 5498 5497 5496 5496 5496 5496 5497 5498 5499 5500 5501 5503 5505
5628 5625 5619 5615 5609 5604 5599 5593 5587 5581 5575 5569 5563 5557 5552 5546 5540 5536 5531 5527 5523 5520 5517 5514 5512 5509 5508 5506 5504 5503 5502 5500 5500 5499 5498 5498 5499 5499 5500 5501 5501 5502 5504 5507
5625 5622 5617 5612 5606 5601 5596 5591 5585 5580 5575 5569 5563 5557 5552 5547 5542 5537 5533 5529 5525 5522 5520 5518 5515 5514 5511 5510 5508 5506 5505 5505 5504 5503 5503 5503 5503 5503 5504 5504 5505 5506 5508 5510
5623 5617 5613 5609 5605 5601 5596 5592 5587 5583 5577 5571 5565 5559 5554 5548 5543 5539 5535 5532 5529 5526 5524 5522 5519 5518 5516 5514 5512 5511 5510 5509 5509 5509 5508 5509 5509 5509 5509 5510 5511 5512 5514 5515
5629 5624 5619 5615 5609 5603 5598 5594 5589 5585 5580 5575 5569 5562 5556 5551 5546 5542 5538 5535 5531 5529 5527 5526 5524 5522 5520 5518 5517 5516 5515 5514 5514 5514 5514 5515 5515 5515 5516 5516 5518 5519 5521 5522
5629 5625 5620 5616 5612 5606 5601 5596 5591 5587 5582 5577 5571 5565 5560 5556 5551 5546 5542 5538 5535 5533 5531 5530 5528 5526 5525 5524 5522 5521 5521 5521 5521 5520 5521 5521 5522 5522 5523 5524 5525 5527 5528 5529
5629 5626 5622 5617 5613 5608 5604 5599 5594 5589 5585 5580 5574 5568 5563 5559 5554 5550 5546 5543 5542 5540 5539 5536 5534 5532 5530 5529 5528 5527 5527 5527 5527 5527 5527 5528 5528 5529 5530 5532 5533 5534 5535 5536
5629 5626 5623 5618 5614 5611 5607 5602 5597 5592 5587 5583 5578 5573 5568 5563 5559 5555 5551 5548 5548 5546 5544 5542 5540 5538 5537 5535 5534 5534 5533 5533 5533 5534 5534 5535 5535 5536 5538 5539 5540 5541 5543 5544
5628 5625 5622 5619 5615 5611 5608 5605 5601 5596 5591 5586 5582 5577 5572 5567 5564 5560 5558 5557 5556 5553 5550 5548 5546 5545 5543 5542 5541 5540 5540 5540 5540 5541 5541 5542 5543 5544 5545 5546 5547 5549 5550 5551
5627 5625 5622 5619 5616 5613 5610 5606 5603 5600 5595 5591 5587 5582 5578 5574 5571 5566 5564 5563 5561 5559 5556 5555 5553 5552 5550 5548 5547 5547 5547 5547 5547 5548 5548 5549 5550 5551 5552 5554 5555 5556 5558 5559
5626 5624 5622 5619 5617 5613 5609 5607 5605 5602 5599 5596 5593 5589 5585 5580 5576 5575 5574 5572 5568 5565 5563 5562 5560 5558 5556 5554 5554 5554 5554 5554 5555 5555 5556 5556 5557 5558 5559 5560 5562 5564 5565 5566
5625 5623 5621 5618 5615 5614 5612 5609 5606 5603 5601 5598 5596 5593 5591 5588 5586 5584 5581 5578 5575 5571 5570 5569 5566 5564 5562 5561 5561 5561 5561 5562 5562 5562 5563 5564 5564 5565 5566 5567 5569 5570 5572 5573
5624 5622 5620 5618 5617 5615 5612 5610 5607 5605 5603 5601 5599 5597 5595 5593 5591 5589 5586 5584 5581 5578 5577 5575 5574 5571 5570 5569 5569 5569 5569 5569 5569 5569 5570 5571 5572 5573 5574 5575 5576 5577 5579 5580
5622 5620 5618 5617 5616 5615 5613 5611 5609 5608 5606 5604 5602 5602 5600 5598 5596 5594 5592 5590 5587 5585 5583 5582 5581 5579 5578 5577 5577 5577 5577 5577 5577 5577 5577 5578 5579 5580 5581 5582 5583 5584 5585 5586